Time,TemperatureF,DewpointF,PressureIn,WindDirection,WindDirectionDegrees,WindSpeedMPH,WindSpeedGustMPH,Humidity,HourlyPrecipIn,Conditions,Clouds,dailyrainin,SolarRadiationWatts/m^2,SoftwareType,DateUTC
2013-05-29 00:00:00,66.8,61.5,29.64,SSW,194,0.0,0.0,83,0.00,,,0.01,0,Wunderground v.1.15,2013-05-29 05:00:00,
2013-05-29 00:10:00,66.4,61.4,29.68,SSW,199,0.0,0.0,84,0.00,,,0.00,0,Wunderground v.1.15,2013-05-29 05:10:00,
2013-05-29 00:20:00,66.1,61.1,29.67,SSW,199,0.0,0.0,84,0.00,,,0.00,0,Wunderground v.1.15,2013-05-29 05:20:00,
2013-05-29 00:30:00,65.6,61.0,29.67,SSW,199,0.0,0.0,85,0.00,,,0.00,0,Wunderground v.1.15,2013-05-29 05:30:00,
2013-05-29 00:40:00,65.5,61.2,29.66,SSW,198,0.0,0.0,86,0.00,,,0.00,0,Wunderground v.1.15,2013-05-29 05:40:00,
2013-05-29 00:50:00,65.0,60.7,29.65,SSW,199,0.0,0.0,86,0.00,,,0.00,0,Wunderground v.1.15,2013-05-29 05:50:00,
2013-05-29 01:00:00,64.8,60.8,29.65,SSW,199,0.0,0.0,87,0.00,,,0.00,0,Wunderground v.1.15,2013-05-29 06:00:00,
2013-05-29 01:10:00,64.8,60.8,29.66,SSW,199,0.0,0.0,87,0.00,,,0.00,0,Wunderground v.1.15,2013-05-29 06:10:00,
2013-05-29 01:20:00,64.7,60.7,29.66,SSW,199,0.0,0.0,87,0.00,,,0.00,0,Wunderground v.1.15,2013-05-29 06:20:00,
2013-05-29 01:30:00,64.5,60.9,29.66,SSW,198,0.0,0.0,88,0.00,,,0.00,0,Wunderground v.1.15,2013-05-29 06:30:00,
2013-05-29 01:40:00,64.7,60.7,29.67,ESE,123,0.0,0.0,87,0.00,,,0.00,0,Wunderground v.1.15,2013-05-29 06:40:00,
2013-05-29 01:50:00,64.7,60.7,29.67,ESE,123,0.0,0.0,87,0.00,,,0.00,0,Wunderground v.1.15,2013-05-29 06:50:00,
2013-05-29 02:00:00,64.8,60.8,29.67,ESE,123,1.0,1.0,87,0.00,,,0.00,0,Wunderground v.1.15,2013-05-29 07:00:00,
2013-05-29 02:10:00,65.2,60.9,29.66,ESE,113,1.0,5.0,86,0.00,,,0.00,0,Wunderground v.1.15,2013-05-29 07:10:00,
2013-05-29 02:20:00,65.2,60.6,29.66,ESE,112,1.0,1.0,85,0.00,,,0.00,0,Wunderground v.1.15,2013-05-29 07:20:00,
2013-05-29 02:30:00,65.5,60.5,29.66,ESE,115,2.0,5.0,84,0.00,,,0.00,0,Wunderground v.1.15,2013-05-29 07:30:00,
2013-05-29 02:40:00,66.0,61.0,29.66,ESE,111,3.0,6.0,84,0.00,,,0.00,0,Wunderground v.1.15,2013-05-29 07:40:00,
2013-05-29 02:50:00,66.0,61.0,29.66,ESE,109,1.0,1.0,84,0.00,,,0.00,0,Wunderground v.1.15,2013-05-29 07:50:00,
2013-05-29 03:00:00,66.0,61.0,29.66,ESE,111,0.0,0.0,84,0.00,,,0.00,0,Wunderground v.1.15,2013-05-29 08:00:00,
2013-05-29 03:10:00,66.1,61.1,29.65,ESE,113,1.0,2.0,84,0.00,,,0.00,0,Wunderground v.1.15,2013-05-29 08:10:00,
2013-05-29 03:20:00,66.1,61.1,29.65,ESE,109,1.0,1.0,84,0.00,,,0.00,0,Wunderground v.1.15,2013-05-29 08:20:00,
2013-05-29 03:30:00,66.1,61.5,29.65,ESE,110,0.0,0.0,85,0.00,,,0.00,0,Wunderground v.1.15,2013-05-29 08:30:00,
2013-05-29 03:40:00,66.3,61.7,29.65,ESE,111,0.0,0.0,85,0.00,,,0.00,0,Wunderground v.1.15,2013-05-29 08:40:00,
2013-05-29 03:50:00,66.4,62.1,29.67,ESE,111,0.0,0.0,86,0.00,,,0.00,0,Wunderground v.1.15,2013-05-29 08:50:00,
2013-05-29 04:00:00,66.9,62.6,29.67,ESE,111,0.0,0.0,86,0.00,,,0.00,0,Wunderground v.1.15,2013-05-29 09:00:00,
2013-05-29 04:10:00,67.8,63.8,29.67,ESE,112,0.0,0.0,87,0.00,,,0.00,0,Wunderground v.1.15,2013-05-29 09:10:00,
2013-05-29 04:20:00,68.6,63.9,29.67,South,173,0.0,4.0,85,0.00,,,0.00,0,Wunderground v.1.15,2013-05-29 09:20:00,
2013-05-29 04:30:00,68.9,64.2,29.67,South,169,0.0,0.0,85,0.00,,,0.00,0,Wunderground v.1.15,2013-05-29 09:30:00,
2013-05-29 04:39:00,69.1,64.1,29.66,ESE,113,0.0,0.0,84,0.00,,,0.00,0,Wunderground v.1.15,2013-05-29 09:39:00,
2013-05-29 04:50:00,69.1,64.1,29.66,ESE,115,0.0,0.0,84,0.00,,,0.00,0,Wunderground v.1.15,2013-05-29 09:50:00,
2013-05-29 05:00:00,69.1,64.4,29.66,ESE,115,0.0,0.0,85,0.00,,,0.00,0,Wunderground v.1.15,2013-05-29 10:00:00,
2013-05-29 05:10:00,69.1,64.4,29.66,ESE,108,0.0,0.0,85,0.00,,,0.00,0,Wunderground v.1.15,2013-05-29 10:10:00,
2013-05-29 05:20:00,69.3,64.6,29.66,ESE,109,0.0,0.0,85,0.00,,,0.00,0,Wunderground v.1.15,2013-05-29 10:20:00,
2013-05-29 05:30:00,69.3,64.6,29.66,SE,129,0.0,0.0,85,0.00,,,0.00,0,Wunderground v.1.15,2013-05-29 10:30:00,
2013-05-29 05:40:00,69.4,64.4,29.66,ESE,115,0.0,0.0,84,0.00,,,0.00,0,Wunderground v.1.15,2013-05-29 10:40:00,
2013-05-29 05:50:00,69.3,64.3,29.65,SSE,156,0.0,0.0,84,0.00,,,0.00,0,Wunderground v.1.15,2013-05-29 10:50:00,
2013-05-29 06:00:00,69.3,64.3,29.65,ESE,112,1.0,1.0,84,0.00,,,0.00,0,Wunderground v.1.15,2013-05-29 11:00:00,
2013-05-29 06:10:00,69.3,64.3,29.65,ESE,111,1.0,1.0,84,0.00,,,0.00,7,Wunderground v.1.15,2013-05-29 11:10:00,
2013-05-29 06:20:00,69.3,63.9,29.65,ESE,119,1.0,1.0,83,0.00,,,0.00,18,Wunderground v.1.15,2013-05-29 11:20:00,
2013-05-29 06:30:00,69.3,63.9,29.65,ESE,108,1.0,1.0,83,0.00,,,0.00,19,Wunderground v.1.15,2013-05-29 11:30:00,
2013-05-29 06:40:00,69.3,63.9,29.65,ESE,112,1.0,1.0,83,0.00,,,0.00,23,Wunderground v.1.15,2013-05-29 11:40:00,
2013-05-29 06:50:00,69.3,63.9,29.65,SSE,152,0.0,1.0,83,0.00,,,0.00,39,Wunderground v.1.15,2013-05-29 11:50:00,
2013-05-29 07:00:00,69.3,63.9,29.65,SE,129,1.0,1.0,83,0.00,,,0.00,40,Wunderground v.1.15,2013-05-29 12:00:00,
2013-05-29 07:10:00,69.6,63.9,29.65,ESE,111,2.0,2.0,82,0.00,,,0.00,32,Wunderground v.1.15,2013-05-29 12:10:00,
2013-05-29 07:20:00,69.8,64.1,29.65,SE,124,2.0,2.0,82,0.00,,,0.00,69,Wunderground v.1.15,2013-05-29 12:20:00,
2013-05-29 07:30:00,70.1,64.0,29.65,SE,138,3.0,3.0,81,0.00,,,0.00,141,Wunderground v.1.15,2013-05-29 12:30:00,
2013-05-29 07:40:00,70.6,64.1,29.64,ESE,111,3.0,4.0,80,0.00,,,0.00,158,Wunderground v.1.15,2013-05-29 12:40:00,
2013-05-29 07:50:00,70.9,64.4,29.64,ESE,117,2.0,5.0,80,0.00,,,0.00,102,Wunderground v.1.15,2013-05-29 12:50:00,
2013-05-29 08:00:00,70.8,64.3,29.64,ESE,109,2.0,2.0,80,0.00,,,0.00,62,Wunderground v.1.15,2013-05-29 13:00:00,
2013-05-29 08:10:00,70.4,64.3,29.64,ESE,117,4.0,5.0,81,0.00,,,0.00,37,Wunderground v.1.15,2013-05-29 13:10:00,
2013-05-29 08:19:00,69.9,64.2,29.65,ESE,108,4.0,4.0,82,0.00,,,0.00,107,Wunderground v.1.15,2013-05-29 13:19:00,
2013-05-29 08:30:00,70.4,64.6,29.65,SE,126,6.0,6.0,82,0.00,,,0.00,325,Wunderground v.1.15,2013-05-29 13:30:00,
2013-05-29 08:39:00,70.8,64.7,29.64,ESE,115,6.0,6.0,81,0.00,,,0.00,141,Wunderground v.1.15,2013-05-29 13:39:00,
2013-05-29 08:50:00,70.8,65.0,29.64,ESE,113,3.0,3.0,82,0.00,,,0.00,186,Wunderground v.1.15,2013-05-29 13:50:00,
2013-05-29 09:00:00,70.9,64.8,29.64,NE,51,4.0,4.0,81,0.00,,,0.00,93,Wunderground v.1.15,2013-05-29 14:00:00,
2013-05-29 09:10:00,70.8,64.7,29.64,SE,130,1.0,1.0,81,0.00,,,0.00,51,Wunderground v.1.15,2013-05-29 14:10:00,
2013-05-29 09:20:00,70.3,64.9,29.65,SE,128,1.0,1.0,83,0.00,,,0.00,26,Wunderground v.1.15,2013-05-29 14:20:00,
2013-05-29 09:30:00,70.1,64.7,29.65,ESE,111,1.0,1.0,83,0.00,,,0.00,21,Wunderground v.1.15,2013-05-29 14:30:00,
2013-05-29 09:40:00,70.1,65.0,29.64,ESE,118,1.0,1.0,84,0.00,,,0.00,14,Wunderground v.1.15,2013-05-29 14:40:00,
2013-05-29 09:50:00,69.9,64.8,29.64,SSW,196,0.0,0.0,84,0.00,,,0.00,11,Wunderground v.1.15,2013-05-29 14:50:00,
2013-05-29 10:00:00,70.1,65.0,29.64,SSW,213,2.0,4.0,84,0.00,,,0.00,5,Wunderground v.1.15,2013-05-29 15:00:00,
2013-05-29 10:10:00,69.4,63.7,29.67,SSW,212,3.0,7.0,82,0.00,,,0.01,11,Wunderground v.1.15,2013-05-29 15:10:00,
2013-05-29 10:20:00,65.6,59.3,29.69,WSW,245,7.0,15.0,80,0.08,,,0.02,7,Wunderground v.1.15,2013-05-29 15:20:00,
2013-05-29 10:30:00,64.8,60.8,29.69,SW,228,9.0,9.0,87,0.15,,,0.04,5,Wunderground v.1.15,2013-05-29 15:30:00,
2013-05-29 10:40:00,64.8,60.2,29.69,WSW,238,11.0,11.0,85,0.27,,,0.08,5,Wunderground v.1.15,2013-05-29 15:40:00,
2013-05-29 10:50:00,65.5,60.5,29.67,SW,224,7.0,7.0,84,0.07,,,0.09,11,Wunderground v.1.15,2013-05-29 15:50:00,
2013-05-29 11:00:00,66.1,59.0,29.67,SW,219,5.0,5.0,78,0.05,,,0.10,18,Wunderground v.1.15,2013-05-29 16:00:00,
2013-05-29 11:09:00,65.6,59.6,29.65,SSW,208,0.0,0.0,81,0.12,,,0.12,56,Wunderground v.1.15,2013-05-29 16:09:00,
2013-05-29 11:20:00,65.3,60.7,29.63,SSW,208,0.0,0.0,85,0.05,,,0.12,359,Wunderground v.1.15,2013-05-29 16:20:00,
2013-05-29 11:30:00,66.1,62.1,29.63,SSE,166,0.0,0.0,87,0.00,,,0.12,121,Wunderground v.1.15,2013-05-29 16:30:00,
2013-05-29 11:40:00,66.4,61.4,29.65,ESE,104,0.0,0.0,84,0.00,,,0.13,39,Wunderground v.1.15,2013-05-29 16:40:00,
2013-05-29 11:50:00,66.6,61.3,29.65,SE,135,0.0,0.0,83,0.00,,,0.13,47,Wunderground v.1.15,2013-05-29 16:50:00,
2013-05-29 12:00:00,66.8,62.1,29.65,SSE,148,0.0,0.0,85,0.00,,,0.14,98,Wunderground v.1.15,2013-05-29 17:00:00,
2013-05-29 12:09:00,67.3,63.0,29.66,SSW,199,0.0,0.0,86,0.00,,,0.14,111,Wunderground v.1.15,2013-05-29 17:09:00,
2013-05-29 12:20:00,67.8,63.5,29.65,East,91,1.0,1.0,86,0.00,,,0.14,54,Wunderground v.1.15,2013-05-29 17:20:00,
2013-05-29 12:30:00,67.8,63.8,29.65,East,101,0.0,0.0,87,0.00,,,0.14,39,Wunderground v.1.15,2013-05-29 17:30:00,
2013-05-29 12:40:00,67.6,63.9,29.66,ESE,105,0.0,0.0,88,0.00,,,0.14,58,Wunderground v.1.15,2013-05-29 17:40:00,
2013-05-29 12:50:00,67.6,63.9,29.64,ESE,115,2.0,3.0,88,0.00,,,0.14,93,Wunderground v.1.15,2013-05-29 17:50:00,
2013-05-29 13:00:00,67.8,64.1,29.64,ESE,113,4.0,4.0,88,0.00,,,0.14,139,Wunderground v.1.15,2013-05-29 18:00:00,
2013-05-29 13:10:00,68.4,65.0,29.64,ESE,104,1.0,1.0,89,0.00,,,0.14,241,Wunderground v.1.15,2013-05-29 18:10:00,
2013-05-29 13:20:00,68.9,65.2,29.64,ESE,113,0.0,0.0,88,0.00,,,0.14,171,Wunderground v.1.15,2013-05-29 18:20:00,
2013-05-29 13:30:00,69.1,65.4,29.64,SSW,200,0.0,0.0,88,0.00,,,0.14,69,Wunderground v.1.15,2013-05-29 18:30:00,
2013-05-29 13:39:00,68.8,65.1,29.65,ESE,107,2.0,7.0,88,1.93,,,0.26,118,Wunderground v.1.15,2013-05-29 18:39:00,
2013-05-29 13:50:00,68.9,66.2,29.62,ESE,109,4.0,4.0,91,0.07,,,0.33,216,Wunderground v.1.15,2013-05-29 18:50:00,
2013-05-29 14:00:00,68.8,65.7,29.62,SE,126,5.0,5.0,90,0.06,,,0.34,51,Wunderground v.1.15,2013-05-29 19:00:00,
2013-05-29 14:10:00,68.1,65.1,29.63,SE,138,1.0,1.0,90,0.00,,,0.34,19,Wunderground v.1.15,2013-05-29 19:10:00,
2013-05-29 14:20:00,67.9,65.2,29.64,ESE,113,0.0,0.0,91,0.00,,,0.34,42,Wunderground v.1.15,2013-05-29 19:20:00,
2013-05-29 14:30:00,67.6,64.9,29.64,SE,125,0.0,5.0,91,0.00,,,0.34,23,Wunderground v.1.15,2013-05-29 19:30:00,
2013-05-29 14:40:00,67.3,64.6,29.65,SW,219,0.0,3.0,91,0.00,,,0.35,56,Wunderground v.1.15,2013-05-29 19:40:00,
2013-05-29 14:50:00,67.6,65.2,29.63,ESE,103,1.0,1.0,92,0.00,,,0.35,250,Wunderground v.1.15,2013-05-29 19:50:00,
2013-05-29 15:00:00,68.4,66.0,29.63,ESE,113,0.0,0.0,92,0.00,,,0.35,167,Wunderground v.1.15,2013-05-29 20:00:00,
2013-05-29 15:10:00,68.6,66.2,29.62,ESE,115,0.0,0.0,92,0.00,,,0.35,128,Wunderground v.1.15,2013-05-29 20:10:00,
2013-05-29 15:19:00,69.6,67.5,29.60,ESE,113,0.0,0.0,93,0.00,,,0.35,459,Wunderground v.1.15,2013-05-29 20:19:00,
2013-05-29 15:30:00,71.3,68.9,29.60,ESE,109,0.0,0.0,92,0.00,,,0.35,323,Wunderground v.1.15,2013-05-29 20:30:00,
2013-05-29 15:40:00,71.3,68.5,29.59,SE,131,3.0,4.0,91,0.00,,,0.35,858,Wunderground v.1.15,2013-05-29 20:40:00,
2013-05-29 15:50:00,72.5,69.4,29.58,East,96,5.0,7.0,90,0.00,,,0.35,434,Wunderground v.1.15,2013-05-29 20:50:00,
2013-05-29 16:00:00,72.8,69.0,29.58,ESE,115,5.0,5.0,88,0.00,,,0.35,367,Wunderground v.1.15,2013-05-29 21:00:00,
2013-05-29 16:10:00,73.7,69.9,29.58,East,100,3.0,3.0,88,0.00,,,0.35,517,Wunderground v.1.15,2013-05-29 21:10:00,
2013-05-29 16:19:00,73.7,69.6,29.57,ESE,115,4.0,4.0,87,0.00,,,0.35,207,Wunderground v.1.15,2013-05-29 21:19:00,
2013-05-29 16:30:00,74.4,69.6,29.57,ESE,121,2.0,4.0,85,0.00,,,0.35,258,Wunderground v.1.15,2013-05-29 21:30:00,
2013-05-29 16:39:00,74.9,69.4,29.55,ESE,116,5.0,5.0,83,0.00,,,0.35,229,Wunderground v.1.15,2013-05-29 21:39:00,
2013-05-29 16:50:00,74.4,69.2,29.54,SE,125,5.0,5.0,84,0.00,,,0.35,322,Wunderground v.1.15,2013-05-29 21:50:00,
2013-05-29 17:00:00,74.7,69.5,29.54,ESE,102,7.0,7.0,84,0.00,,,0.35,315,Wunderground v.1.15,2013-05-29 22:00:00,
2013-05-29 17:10:00,75.4,69.2,29.52,ESE,121,7.0,7.0,81,0.00,,,0.35,171,Wunderground v.1.15,2013-05-29 22:10:00,
2013-05-29 17:20:00,75.3,69.1,29.52,ESE,107,5.0,6.0,81,0.00,,,0.35,132,Wunderground v.1.15,2013-05-29 22:20:00,
2013-05-29 17:30:00,75.1,68.9,29.52,ESE,121,7.0,7.0,81,0.00,,,0.35,84,Wunderground v.1.15,2013-05-29 22:30:00,
2013-05-29 17:40:00,75.1,68.9,29.51,ESE,108,7.0,10.0,81,0.00,,,0.35,63,Wunderground v.1.15,2013-05-29 22:40:00,
2013-05-29 17:50:00,74.9,68.7,29.51,ESE,116,6.0,6.0,81,0.00,,,0.35,51,Wunderground v.1.15,2013-05-29 22:50:00,
2013-05-29 18:00:00,74.9,68.3,29.51,ESE,119,8.0,8.0,80,0.00,,,0.35,47,Wunderground v.1.15,2013-05-29 23:00:00,
2013-05-29 18:10:00,74.7,68.1,29.51,ESE,115,6.0,8.0,80,0.00,,,0.35,42,Wunderground v.1.15,2013-05-29 23:10:00,
2013-05-29 18:20:00,74.6,68.0,29.51,ESE,113,7.0,7.0,80,0.00,,,0.35,16,Wunderground v.1.15,2013-05-29 23:20:00,
2013-05-29 18:29:00,74.4,68.2,29.51,ESE,119,5.0,5.0,81,0.00,,,0.35,9,Wunderground v.1.15,2013-05-29 23:29:00,
2013-05-29 18:40:00,74.4,67.8,29.52,ESE,114,2.0,6.0,80,0.00,,,0.35,5,Wunderground v.1.15,2013-05-29 23:40:00,
2013-05-29 18:50:00,74.6,67.7,29.49,SE,144,4.0,4.0,79,0.00,,,0.35,5,Wunderground v.1.15,2013-05-29 23:50:00,
2013-05-29 19:00:00,74.6,67.7,29.49,South,178,3.0,11.0,79,0.00,,,0.35,5,Wunderground v.1.15,2013-05-30 00:00:00,
2013-05-29 19:10:00,74.4,67.1,29.51,SE,141,2.0,4.0,78,0.00,,,0.35,0,Wunderground v.1.15,2013-05-30 00:10:00,
2013-05-29 19:20:00,74.2,66.9,29.52,SW,220,3.0,3.0,78,0.00,,,0.35,0,Wunderground v.1.15,2013-05-30 00:20:00,
2013-05-29 19:30:00,74.2,66.9,29.52,ESE,121,2.0,7.0,78,0.00,,,0.35,0,Wunderground v.1.15,2013-05-30 00:30:00,
2013-05-29 19:40:00,73.9,67.0,29.52,ESE,109,3.0,3.0,79,0.00,,,0.35,0,Wunderground v.1.15,2013-05-30 00:40:00,
2013-05-29 19:50:00,73.0,67.2,29.52,ESE,119,2.0,2.0,82,0.36,,,0.39,0,Wunderground v.1.15,2013-05-30 00:50:00,
2013-05-29 20:00:00,69.4,63.3,29.52,West,259,4.0,14.0,81,3.97,,,0.63,0,Wunderground v.1.15,2013-05-30 01:00:00,
2013-05-29 20:10:00,66.9,62.6,29.56,SSE,161,2.0,2.0,86,0.08,,,0.79,0,Wunderground v.1.15,2013-05-30 01:10:00,
2013-05-29 20:20:00,66.0,61.4,29.55,SW,217,0.0,0.0,85,0.00,,,0.79,0,Wunderground v.1.15,2013-05-30 01:20:00,
2013-05-29 20:30:00,65.8,60.8,29.55,WSW,241,0.0,0.0,84,0.00,,,0.79,0,Wunderground v.1.15,2013-05-30 01:30:00,
2013-05-29 20:40:00,65.8,61.5,29.56,SE,135,0.0,0.0,86,0.00,,,0.79,0,Wunderground v.1.15,2013-05-30 01:40:00,
2013-05-29 20:50:00,66.0,62.3,29.56,ESE,113,0.0,0.0,88,0.00,,,0.80,0,Wunderground v.1.15,2013-05-30 01:50:00,
2013-05-29 20:59:00,66.1,62.8,29.56,SSW,196,0.0,0.0,89,0.04,,,0.81,0,Wunderground v.1.15,2013-05-30 01:59:00,
2013-05-29 21:10:00,65.8,62.5,29.55,SSE,153,0.0,0.0,89,0.04,,,0.81,0,Wunderground v.1.15,2013-05-30 02:10:00,
2013-05-29 21:20:00,65.3,62.0,29.57,SE,135,0.0,0.0,89,0.35,,,0.85,0,Wunderground v.1.15,2013-05-30 02:20:00,
2013-05-29 21:29:00,65.2,61.9,29.57,SW,223,0.0,0.0,89,0.06,,,0.85,0,Wunderground v.1.15,2013-05-30 02:29:00,
2013-05-29 21:40:00,65.2,62.2,29.59,SW,218,1.0,1.0,90,0.06,,,0.86,0,Wunderground v.1.15,2013-05-30 02:40:00,
2013-05-29 22:00:00,64.7,61.4,29.58,SSE,150,1.0,1.0,89,0.19,,,0.90,0,Wunderground v.1.15,2013-05-30 03:00:00,
2013-05-29 22:10:00,64.3,61.0,29.58,SE,128,0.0,0.0,89,0.18,,,0.93,0,Wunderground v.1.15,2013-05-30 03:10:00,
2013-05-29 22:20:00,64.0,61.0,29.57,NNE,31,0.0,0.0,90,0.11,,,0.95,0,Wunderground v.1.15,2013-05-30 03:20:00,
2013-05-29 22:30:00,63.9,61.2,29.57,SSE,160,0.0,0.0,91,0.14,,,0.98,0,Wunderground v.1.15,2013-05-30 03:30:00,
2013-05-29 22:40:00,63.7,61.0,29.57,SE,138,0.0,0.0,91,0.11,,,0.99,0,Wunderground v.1.15,2013-05-30 03:40:00,
2013-05-29 22:50:00,63.7,61.0,29.57,ESE,109,0.0,5.0,91,0.12,,,1.02,0,Wunderground v.1.15,2013-05-30 03:50:00,
2013-05-29 22:59:00,63.4,61.0,29.57,ESE,111,8.0,8.0,92,0.09,,,1.03,0,Wunderground v.1.15,2013-05-30 03:59:00,
2013-05-29 23:10:00,63.2,60.8,29.51,ESE,109,7.0,7.0,92,0.09,,,1.04,0,Wunderground v.1.15,2013-05-30 04:10:00,
2013-05-29 23:20:00,63.2,60.8,29.52,ESE,105,8.0,8.0,92,0.00,,,1.04,0,Wunderground v.1.15,2013-05-30 04:20:00,
2013-05-29 23:30:00,63.2,60.8,29.52,ESE,106,5.0,5.0,92,0.00,,,1.04,0,Wunderground v.1.15,2013-05-30 04:30:00,
2013-05-29 23:40:00,63.1,60.7,29.54,SE,131,1.0,1.0,92,0.00,,,1.04,0,Wunderground v.1.15,2013-05-30 04:40:00,
2013-05-29 23:50:00,63.2,61.1,29.53,ESE,107,1.0,1.0,93,0.00,,,1.04,0,Wunderground v.1.15,2013-05-30 04:50:00,